Content
SEND FEEDBACK

United States of America Flag

GREENFIELD, MASSACHUSETTS


Home > North America > United States > Massachusetts
Elevation: 58 meters     Latitude: 42 37N     Longitude: 072 33W

WEATHER
 
SELECT A DAY
Number of Records: 225,830;   Date Range: 7/1/96 - 8/27/15
 
SHARE

PRINT THIS DATA

[ ← Previous Day ]
WEATHER ALMANAC - 7 AUGUST, 2014
[ Next Day → ]
[ °F ]   °C
Weather ElementAverageHighLow
Temperature17.3 °C23.3 °C (10:41 am)11.1 °C (5:52 am)
Dewpoint11.9 °C13.9 °C (1:52 pm)10 °C (5:52 am)
Humidity74 %97 % (12:52 am)43 % (1:52 pm)
Barometer1013.2 hPa1015.6 hPa (9:52 pm)1011.9 hPa (6:42 am)
Wind Speed8 km/h24.1 km/h (1:52 pm)
Wind Gust35.2 km/h (1:52 pm)
Weather ElementAverage
Visibility16.1 km
Wind DirectionSSE (160 °)

Weather ElementTotal
Precipitation0.25 mm
Heating Degree Days1.2 (Base 18.3)
Growing Degree Days7.2 (Base 10)
Averaged from 24 records on 7 August, 2014
WEATHER CONDITIONS BREAKOUT
WIND DIRECTION BREAKOUT
WEATHER BY HOUR - 7 AUGUST, 2014
[ °F ]   °C
Local TimeTemperatureDewpointHumidityBarometerVisibilityWind DirectionWind SpeedGust SpeedPrecipitationEventsConditions
12:52 AM13.9 °C12.8 °C93 %1012.5 hPa16.1 kmCalmClear
1:52 AM13.3 °C12.2 °C93 %1012.2 hPa16.1 kmNNE (20°)5.6 km/hClear
2:52 AM12.2 °C11.7 °C97 %1012.2 hPa16.1 kmCalmClear
3:52 AM12.2 °C11.7 °C97 %1012.5 hPa16.1 kmCalmClear
4:52 AM11.7 °C11.1 °C96 %1012.5 hPa14.5 kmCalmClear
5:52 AM11.1 °C10 °C93 %1012.9 hPa16.1 kmCalmClear
6:52 AM12.2 °C11.1 °C93 %1013.2 hPa16.1 kmCalmMostly Cloudy
7:52 AM13.3 °C12.8 °C97 %1013.5 hPa16.1 kmCalm0.25 mmPartly Cloudy
8:52 AM17.2 °C13.9 °C81 %1013.2 hPa16.1 kmCalmPartly Cloudy
9:52 AM20 °C12.8 °C63 %1013.2 hPa16.1 kmNW (320°)11.1 km/hClear
10:52 AM22.2 °C11.7 °C51 %1013.2 hPa16.1 kmWNW (300°)16.7 km/hClear
11:52 AM22.8 °C12.2 °C51 %1012.9 hPa16.1 kmWNW (300°)14.8 km/hPartly Cloudy
12:52 PM23.3 °C12.8 °C52 %1012.5 hPa16.1 kmNW (320°)16.7 km/hPartly Cloudy
1:52 PM23.3 °C10 °C43 %1011.9 hPa16.1 kmNW (320°)24.1 km/h35.2 km/h0 mmPartly Cloudy
2:52 PM22.2 °C12.8 °C55 %1012.2 hPa16.1 kmWest (260°)18.5 km/hClear
3:52 PM23.3 °C10.6 °C45 %1012.5 hPa16.1 kmNW (320°)24.1 km/hScattered Clouds
4:52 PM23.3 °C10.6 °C45 %1012.5 hPa16.1 kmNorth (350°)18.5 km/hClear
5:52 PM21.1 °C11.1 °C53 %1014.2 hPa16.1 kmNW (320°)13 km/hClear
6:52 PM21.7 °C11.1 °C51 %1013.9 hPa16.1 kmNW (320°)16.7 km/hClear
7:52 PM18.3 °C12.8 °C70 %1014.6 hPa16.1 kmNNW (330°)5.6 km/hClear
8:52 PM15.6 °C13.3 °C86 %1015.2 hPa16.1 kmCalmClear
9:52 PM14.4 °C12.8 °C90 %1015.6 hPa16.1 kmCalmClear
10:52 PM13.9 °C12.2 °C89 %1015.2 hPa16.1 kmNorth (360°)5.6 km/hClear
11:52 PM12.2 °C11.1 °C93 %1015.6 hPa16.1 kmCalmPartly Cloudy
Hourly data recorded from KORE, located 0 kilometers away from Greenfield, Massachusetts